Weather History for Montauk, NY

Change the Weather History Date:

Saturday, February 9, 2013

  Actual Average (KHTO) Record (KHTO)
Temperature  
Mean Temperature 24 °F -  
Max Temperature 28 °F 36 °F 55 °F (1949)
Min Temperature 21 °F 20 °F -12 °F (1934)
Degree Days  
Heating Degree Days 40    
Moisture  
Dew Point 15 °F    
Average Humidity 68    
Maximum Humidity 92    
Minimum Humidity 42    
Precipitation  
Precipitation 0.09 in - - ()
Sea Level Pressure  
Sea Level Pressure 29.89 in    
Wind  
Wind Speed 22 mph (NW)    
Max Wind Speed 28 mph    
Max Gust Speed 48 mph    
Averages and records for this station are not official NWS values.
T = Trace of Precipitation, MM = Missing Value Source: NWS Daily Summary

Daily Weather History Graph

Daily Weather History Graph

Search for Another Location

Airport:

Trip Planner

Search our weather history database for the weather conditions in past years. The results will help you decide how hot, cold, wet, or windy it might be!

Date:

Astronomy

Feb. 09, 2013 Rise Set
Actual Time 6:49 AM EST 5:14 PM EST
Civil Twilight 6:20 AM EST 5:43 PM EST
Nautical Twilight 5:48 AM EST 6:16 PM EST
Astronomical Twilight 5:16 AM EST 6:48 PM EST
Moon 5:59 AM EST (2/9) 4:54 PM EST (2/9)
Length of Visible Light 11h 22m
Length of Day
10h 25m
Waning Crescent, 0% of the Moon is Illuminated
Feb 9
Waning Crescent
Feb 10
New
Feb 17
First Quarter
Feb 25
Full
Mar 4
Last Quarter

Hourly Weather History & Observations

Time (EST) Temp. Windchill Dew Point Humidity Pressure Visibility Wind Dir Wind Speed Gust Speed Precip Events Conditions
12:54 AM 25.0 °F 8.6 °F 21.9 °F 88% 29.55 in - NNW 27.6 mph 40.3 mph 0.01 in   Unknown
1:54 AM 27.0 °F 11.6 °F 23.0 °F 85% 29.61 in - NNW 26.5 mph 48.3 mph N/A   Unknown
2:54 AM 23.0 °F 7.2 °F 21.0 °F 92% 29.62 in - NNW 23.0 mph 35.7 mph 0.02 in   Unknown
3:54 AM 23.0 °F 8.3 °F 21.0 °F 92% 29.64 in - NW 19.6 mph 33.4 mph 0.05 in   Unknown
5:54 AM 26.1 °F 12.0 °F 21.9 °F 84% 29.68 in - NW 20.7 mph 34.5 mph 0.01 in   Unknown
6:54 AM 26.1 °F 11.6 °F 21.9 °F 84% 29.70 in - NNW 21.9 mph 34.5 mph N/A   Unknown
7:54 AM 26.1 °F 11.6 °F 21.9 °F 84% 29.74 in - NW 21.9 mph 33.4 mph N/A   Unknown
8:54 AM 26.1 °F 12.7 °F 21.0 °F 81% 29.77 in - NW 18.4 mph 31.1 mph N/A   Unknown
11:54 AM 26.1 °F 12.3 °F 18.0 °F 71% 29.85 in - NW 19.6 mph 33.4 mph N/A   Unknown
12:54 PM 26.1 °F 12.3 °F 17.1 °F 69% 29.87 in - NW 19.6 mph 34.5 mph N/A   Unknown
1:54 PM 26.1 °F 12.3 °F 17.1 °F 69% 29.88 in - NW 19.6 mph 28.8 mph N/A   Unknown
3:54 PM 28.0 °F 14.9 °F 12.9 °F 53% 29.97 in - NW 19.6 mph 33.4 mph N/A   Unknown
4:54 PM 27.0 °F 13.9 °F 10.9 °F 51% 30.00 in - NW 18.4 mph 31.1 mph N/A   Unknown
5:54 PM 27.0 °F 13.5 °F 9.0 °F 47% 30.06 in - NW 19.6 mph 29.9 mph N/A   Unknown
6:54 PM 26.1 °F 11.3 °F 7.0 °F 44% 30.10 in - NW 23.0 mph 36.8 mph N/A   Unknown
8:54 PM 24.1 °F 9.0 °F 3.9 °F 42% 30.17 in - NNW 21.9 mph 32.2 mph N/A   Unknown
9:54 PM 23.0 °F 8.3 °F 3.9 °F 44% 30.19 in - NNW 19.6 mph 31.1 mph N/A   Unknown
10:54 PM 21.9 °F 8.2 °F 6.1 °F 51% 30.22 in - NNW 16.1 mph 29.9 mph N/A   Unknown
11:54 PM 21.9 °F 7.3 °F 7.0 °F 53% 30.24 in - NNW 18.4 mph 27.6 mph N/A   Unknown